History Data

Date (GMT-7:00) CPM ACPM uSv/h Latitude Longitude Altitude CO CO2 TVOC HCHO Air Pressure Temperature Humidity Type
2026-04-17 14:49:10 15 18.20 0.075000 41.649648 41.62752893 0 0 0 0 0 0 0 0 STD5.60
2026-04-17 14:44:09 15 18.30 0.075000 41.649648 41.62752893 0 0 0 0 0 0 0 0 STD5.60
2026-04-17 14:34:04 14 18.40 0.070000 41.649648 41.62752893 0 0 0 0 0 0 0 0 STD5.60
2026-04-17 14:29:03 14 19.40 0.070000 41.649648 41.62752893 0 0 0 0 0 0 0 0 STD5.60
2026-04-17 14:24:02 18 16.70 0.090000 41.649648 41.62752893 0 0 0 0 0 0 0 0 STD5.60
2026-04-17 14:18:58 12 15.60 0.060000 41.649648 41.62752893 0 0 0 0 0 0 0 0 STD5.60
2026-04-17 14:13:56 16 16.70 0.080000 41.649648 41.62752893 0 0 0 0 0 0 0 0 STD5.60
2026-04-17 14:08:52 19 17.70 0.095000 41.649648 41.62752893 0 0 0 0 0 0 0 0 STD5.60
2026-04-17 14:03:57 12 19.70 0.060000 41.649648 41.62752893 0 0 0 0 0 0 0 0 STD5.60
2026-04-17 13:58:49 22 19.70 0.110000 41.649648 41.62752893 0 0 0 0 0 0 0 0 STD5.60
2026-04-17 13:48:44 14 17.60 0.070000 41.649648 41.62752893 0 0 0 0 0 0 0 0 STD5.60
2026-04-17 13:43:42 17 20.40 0.085000 41.649648 41.62752893 0 0 0 0 0 0 0 0 STD5.60
2026-04-17 13:38:40 16 18.10 0.080000 41.649648 41.62752893 0 0 0 0 0 0 0 0 STD5.60
2026-04-17 13:33:38 16 16.00 0.080000 41.649648 41.62752893 0 0 0 0 0 0 0 0 STD5.60
2026-04-17 13:28:36 18 17.70 0.090000 41.649648 41.62752893 0 0 0 0 0 0 0 0 STD5.60
2026-04-17 13:23:37 16 16.80 0.080000 41.649648 41.62752893 0 0 0 0 0 0 0 0 STD5.60
2026-04-17 13:18:37 19 18.60 0.095000 41.649648 41.62752893 0 0 0 0 0 0 0 0 STD5.60
2026-04-17 13:13:31 27 20.80 0.135000 41.649648 41.62752893 0 0 0 0 0 0 0 0 STD5.60
2026-04-17 13:08:27 15 20.50 0.075000 41.649648 41.62752893 0 0 0 0 0 0 0 0 STD5.60
2026-04-17 13:03:26 14 16.90 0.070000 41.649648 41.62752893 0 0 0 0 0 0 0 0 STD5.60
2026-04-17 12:58:27 14 14.60 0.070000 41.649648 41.62752893 0 0 0 0 0 0 0 0 STD5.60
2026-04-17 12:53:21 14 19.20 0.070000 41.649648 41.62752893 0 0 0 0 0 0 0 0 STD5.60
2026-04-17 12:48:21 38 20.90 0.190000 41.649648 41.62752893 0 0 0 0 0 0 0 0 STD5.60
2026-04-17 12:43:18 24 17.50 0.120000 41.649648 41.62752893 0 0 0 0 0 0 0 0 STD5.60
2026-04-17 12:38:15 18 15.00 0.090000 41.649648 41.62752893 0 0 0 0 0 0 0 0 STD5.60
2026-04-17 12:33:13 9 18.30 0.045000 41.649648 41.62752893 0 0 0 0 0 0 0 0 STD5.60
2026-04-17 12:28:13 22 20.50 0.110000 41.649648 41.62752893 0 0 0 0 0 0 0 0 STD5.60
2026-04-17 12:23:14 13 17.90 0.065000 41.649648 41.62752893 0 0 0 0 0 0 0 0 STD5.60
2026-04-17 12:18:09 12 18.90 0.060000 41.649648 41.62752893 0 0 0 0 0 0 0 0 STD5.60
2026-04-17 12:13:07 21 18.80 0.105000 41.649648 41.62752893 0 0 0 0 0 0 0 0 STD5.60
2026-04-17 12:08:04 17 17.60 0.085000 41.649648 41.62752893 0 0 0 0 0 0 0 0 STD5.60
2026-04-17 12:03:00 17 17.80 0.085000 41.649648 41.62752893 0 0 0 0 0 0 0 0 STD5.60
2026-04-17 11:57:59 18 18.90 0.090000 41.649648 41.62752893 0 0 0 0 0 0 0 0 STD5.60
2026-04-17 11:52:56 27 19.50 0.135000 41.649648 41.62752893 0 0 0 0 0 0 0 0 STD5.60
2026-04-17 11:47:55 20 17.60 0.100000 41.649648 41.62752893 0 0 0 0 0 0 0 0 STD5.60
2026-04-17 11:42:52 16 17.20 0.080000 41.649648 41.62752893 0 0 0 0 0 0 0 0 STD5.60
2026-04-17 11:37:52 17 18.50 0.085000 41.649648 41.62752893 0 0 0 0 0 0 0 0 STD5.60
2026-04-17 11:32:48 10 18.80 0.050000 41.649648 41.62752893 0 0 0 0 0 0 0 0 STD5.60
2026-04-17 11:27:46 26 18.00 0.130000 41.649648 41.62752893 0 0 0 0 0 0 0 0 STD5.60
2026-04-17 11:22:44 18 18.00 0.090000 41.649648 41.62752893 0 0 0 0 0 0 0 0 STD5.60
2026-04-17 11:17:43 23 18.50 0.115000 41.649648 41.62752893 0 0 0 0 0 0 0 0 STD5.60
2026-03-29 23:34:40 13 18.10 0.065000 41.649648 41.62752893 0 0 0 0 0 0 0 0 STD5.60
2026-03-29 23:24:34 18 18.30 0.090000 41.649648 41.62752893 0 0 0 0 0 0 0 0 STD5.60
2026-03-29 23:19:31 19 18.50 0.095000 41.649648 41.62752893 0 0 0 0 0 0 0 0 STD5.60
2026-03-29 23:14:29 19 20.70 0.095000 41.649648 41.62752893 0 0 0 0 0 0 0 0 STD5.60
2026-03-29 23:09:27 28 20.40 0.140000 41.649648 41.62752893 0 0 0 0 0 0 0 0 STD5.60
2026-03-29 23:04:25 14 17.90 0.070000 41.649648 41.62752893 0 0 0 0 0 0 0 0 STD5.60
2026-03-29 22:59:23 23 17.30 0.115000 41.649648 41.62752893 0 0 0 0 0 0 0 0 STD5.60
2026-03-29 22:54:21 23 18.20 0.115000 41.649648 41.62752893 0 0 0 0 0 0 0 0 STD5.60
2026-03-29 22:44:17 16 18.70 0.080000 41.649648 41.62752893 0 0 0 0 0 0 0 0 STD5.60
2026-03-29 22:39:16 22 17.90 0.110000 41.649648 41.62752893 0 0 0 0 0 0 0 0 STD5.60
2026-03-29 22:34:13 20 20.00 0.100000 41.649648 41.62752893 0 0 0 0 0 0 0 0 STD5.60
2026-03-29 22:29:11 26 22.20 0.130000 41.649648 41.62752893 0 0 0 0 0 0 0 0 STD5.60
2026-03-29 22:24:07 29 20.80 0.145000 41.649648 41.62752893 0 0 0 0 0 0 0 0 STD5.60
2026-03-29 22:14:03 22 18.80 0.110000 41.649648 41.62752893 0 0 0 0 0 0 0 0 STD5.60
2026-03-29 22:09:01 28 17.80 0.140000 41.649648 41.62752893 0 0 0 0 0 0 0 0 STD5.60
2026-03-29 22:04:00 17 16.40 0.085000 41.649648 41.62752893 0 0 0 0 0 0 0 0 STD5.60
2026-03-29 21:58:58 16 15.30 0.080000 41.649648 41.62752893 0 0 0 0 0 0 0 0 STD5.60
2026-03-29 21:53:56 24 16.70 0.120000 41.649648 41.62752893 0 0 0 0 0 0 0 0 STD5.60
2026-03-29 21:48:54 11 16.40 0.055000 41.649648 41.62752893 0 0 0 0 0 0 0 0 STD5.60
2026-03-29 21:43:52 17 17.60 0.085000 41.649648 41.62752893 0 0 0 0 0 0 0 0 STD5.60
2026-03-29 21:38:50 20 19.10 0.100000 41.649648 41.62752893 0 0 0 0 0 0 0 0 STD5.60
2026-03-29 21:33:48 21 19.60 0.105000 41.649648 41.62752893 0 0 0 0 0 0 0 0 STD5.60
2026-03-29 21:28:46 15 20.00 0.075000 41.649648 41.62752893 0 0 0 0 0 0 0 0 STD5.60
2026-03-29 21:23:43 18 19.20 0.090000 41.649648 41.62752893 0 0 0 0 0 0 0 0 STD5.60
2026-03-29 21:18:41 19 18.20 0.095000 41.649648 41.62752893 0 0 0 0 0 0 0 0 STD5.60
2026-03-29 21:13:38 27 18.90 0.135000 41.649648 41.62752893 0 0 0 0 0 0 0 0 STD5.60
2026-03-29 21:08:36 16 17.40 0.080000 41.649648 41.62752893 0 0 0 0 0 0 0 0 STD5.60
2026-03-29 21:03:34 15 16.80 0.075000 41.649648 41.62752893 0 0 0 0 0 0 0 0 STD5.60
2026-03-29 20:58:32 16 17.50 0.080000 41.649648 41.62752893 0 0 0 0 0 0 0 0 STD5.60
2026-03-29 20:53:30 17 16.50 0.085000 41.649648 41.62752893 0 0 0 0 0 0 0 0 STD5.60
2026-03-29 20:48:29 15 18.20 0.075000 41.649648 41.62752893 0 0 0 0 0 0 0 0 STD5.60
2026-03-29 20:43:26 19 17.90 0.095000 41.649648 41.62752893 0 0 0 0 0 0 0 0 STD5.60
2026-03-29 20:38:25 19 16.50 0.095000 41.649648 41.62752893 0 0 0 0 0 0 0 0 STD5.60
2026-03-29 20:33:23 16 17.10 0.080000 41.649648 41.62752893 0 0 0 0 0 0 0 0 STD5.60
2026-03-29 20:28:21 11 17.60 0.055000 41.649648 41.62752893 0 0 0 0 0 0 0 0 STD5.60
2026-03-29 20:23:17 21 18.70 0.105000 41.649648 41.62752893 0 0 0 0 0 0 0 0 STD5.60
2026-03-29 20:18:15 15 18.60 0.075000 41.649648 41.62752893 0 0 0 0 0 0 0 0 STD5.60
2026-03-29 20:08:11 19 17.00 0.095000 41.649648 41.62752893 0 0 0 0 0 0 0 0 STD5.60
2026-03-29 20:03:09 15 16.50 0.075000 41.649648 41.62752893 0 0 0 0 0 0 0 0 STD5.60
2026-03-29 19:58:07 12 17.70 0.060000 41.649648 41.62752893 0 0 0 0 0 0 0 0 STD5.60
2026-03-29 19:53:05 23 18.30 0.115000 41.649648 41.62752893 0 0 0 0 0 0 0 0 STD5.60
2026-03-29 19:48:04 15 18.60 0.075000 41.649648 41.62752893 0 0 0 0 0 0 0 0 STD5.60
2026-03-29 19:43:01 17 19.30 0.085000 41.649648 41.62752893 0 0 0 0 0 0 0 0 STD5.60
2026-03-29 19:37:59 18 19.30 0.090000 41.649648 41.62752893 0 0 0 0 0 0 0 0 STD5.60
2026-03-29 19:32:56 18 19.50 0.090000 41.649648 41.62752893 0 0 0 0 0 0 0 0 STD5.60
2026-03-29 19:27:55 15 18.90 0.075000 41.649648 41.62752893 0 0 0 0 0 0 0 0 STD5.60
2026-03-29 19:22:51 18 16.90 0.090000 41.649648 41.62752893 0 0 0 0 0 0 0 0 STD5.60
2026-03-29 19:17:49 15 16.00 0.075000 41.649648 41.62752893 0 0 0 0 0 0 0 0 STD5.60
2026-03-29 19:12:47 19 18.10 0.095000 41.649648 41.62752893 0 0 0 0 0 0 0 0 STD5.60
2026-03-29 19:07:46 22 19.00 0.110000 41.649648 41.62752893 0 0 0 0 0 0 0 0 STD5.60
2026-03-29 19:02:43 14 18.20 0.070000 41.649648 41.62752893 0 0 0 0 0 0 0 0 STD5.60
2026-03-29 18:57:41 17 19.80 0.085000 41.649648 41.62752893 0 0 0 0 0 0 0 0 STD5.60
2026-03-29 18:52:39 19 18.90 0.095000 41.649648 41.62752893 0 0 0 0 0 0 0 0 STD5.60
2026-03-29 18:47:37 17 17.90 0.085000 41.649648 41.62752893 0 0 0 0 0 0 0 0 STD5.60
2026-03-29 18:42:35 13 17.70 0.065000 41.649648 41.62752893 0 0 0 0 0 0 0 0 STD5.60
2026-03-29 18:37:34 22 18.30 0.110000 41.649648 41.62752893 0 0 0 0 0 0 0 0 STD5.60
2026-03-29 18:32:32 19 19.90 0.095000 41.649648 41.62752893 0 0 0 0 0 0 0 0 STD5.60
2026-03-29 18:27:30 28 19.50 0.140000 41.649648 41.62752893 0 0 0 0 0 0 0 0 STD5.60
2026-03-29 18:22:26 12 16.50 0.060000 41.649648 41.62752893 0 0 0 0 0 0 0 0 STD5.60
2026-03-29 18:17:24 16 17.20 0.080000 41.649648 41.62752893 0 0 0 0 0 0 0 0 STD5.60
2026-03-29 18:12:22 14 18.40 0.070000 41.649648 41.62752893 0 0 0 0 0 0 0 0 STD5.60
2026-03-29 18:07:20 16 18.50 0.080000 41.649648 41.62752893 0 0 0 0 0 0 0 0 STD5.60
2026-03-29 18:02:18 18 19.40 0.090000 41.649648 41.62752893 0 0 0 0 0 0 0 0 STD5.60
2026-03-29 17:52:14 27 17.50 0.135000 41.649648 41.62752893 0 0 0 0 0 0 0 0 STD5.60
2026-03-29 17:47:13 13 14.70 0.065000 41.649648 41.62752893 0 0 0 0 0 0 0 0 STD5.60
2026-03-29 17:42:11 8 16.70 0.040000 41.649648 41.62752893 0 0 0 0 0 0 0 0 STD5.60
2026-03-29 17:37:08 19 16.60 0.095000 41.649648 41.62752893 0 0 0 0 0 0 0 0 STD5.60
2026-03-29 17:32:06 11 14.90 0.055000 41.649648 41.62752893 0 0 0 0 0 0 0 0 STD5.60
2026-03-29 17:27:05 19 18.40 0.095000 41.649648 41.62752893 0 0 0 0 0 0 0 0 STD5.60
2026-03-29 17:22:01 20 20.20 0.100000 41.649648 41.62752893 0 0 0 0 0 0 0 0 STD5.60
2026-03-29 17:16:59 22 19.90 0.110000 41.649648 41.62752893 0 0 0 0 0 0 0 0 STD5.60
2026-03-29 17:11:56 12 17.90 0.060000 41.649648 41.62752893 0 0 0 0 0 0 0 0 STD5.60
2026-03-29 17:06:54 23 17.50 0.115000 41.649648 41.62752893 0 0 0 0 0 0 0 0 STD5.60
2026-03-29 17:01:54 18 19.10 0.090000 41.649648 41.62752893 0 0 0 0 0 0 0 0 STD5.60
2026-03-29 16:56:51 20 18.60 0.100000 41.649648 41.62752893 0 0 0 0 0 0 0 0 STD5.60
2026-03-29 16:51:49 16 19.20 0.080000 41.649648 41.62752893 0 0 0 0 0 0 0 0 STD5.60
2026-03-29 16:46:47 11 19.30 0.055000 41.649648 41.62752893 0 0 0 0 0 0 0 0 STD5.60
2026-03-29 16:41:47 18 16.60 0.090000 41.649648 41.62752893 0 0 0 0 0 0 0 0 STD5.60
2026-03-29 16:36:43 17 15.40 0.085000 41.649648 41.62752893 0 0 0 0 0 0 0 0 STD5.60
2026-03-29 16:31:42 17 18.70 0.085000 41.649648 41.62752893 0 0 0 0 0 0 0 0 STD5.60
2026-03-29 16:26:39 20 19.60 0.100000 41.649648 41.62752893 0 0 0 0 0 0 0 0 STD5.60
2026-03-29 16:21:35 23 19.40 0.115000 41.649648 41.62752893 0 0 0 0 0 0 0 0 STD5.60
2026-03-29 16:16:33 22 19.20 0.110000 41.649648 41.62752893 0 0 0 0 0 0 0 0 STD5.60
2026-03-29 16:11:31 21 18.50 0.105000 41.649648 41.62752893 0 0 0 0 0 0 0 0 STD5.60
2026-03-29 16:06:30 25 18.60 0.125000 41.649648 41.62752893 0 0 0 0 0 0 0 0 STD5.60
2026-03-29 16:01:27 15 17.60 0.075000 41.649648 41.62752893 0 0 0 0 0 0 0 0 STD5.60
2026-03-29 15:56:25 18 17.00 0.090000 41.649648 41.62752893 0 0 0 0 0 0 0 0 STD5.60
2026-03-29 15:51:23 18 18.10 0.090000 41.649648 41.62752893 0 0 0 0 0 0 0 0 STD5.60
2026-03-29 15:46:23 19 21.00 0.095000 41.649648 41.62752893 0 0 0 0 0 0 0 0 STD5.60
2026-03-29 15:41:20 32 18.70 0.160000 41.649648 41.62752893 0 0 0 0 0 0 0 0 STD5.60
2026-03-29 15:36:17 7 15.30 0.035000 41.649648 41.62752893 0 0 0 0 0 0 0 0 STD5.60
2026-03-29 15:31:15 13 17.60 0.065000 41.649648 41.62752893 0 0 0 0 0 0 0 0 STD5.60
2026-03-29 15:26:13 19 17.00 0.095000 41.649648 41.62752893 0 0 0 0 0 0 0 0 STD5.60
2026-03-29 15:21:08 14 15.90 0.070000 41.649648 41.62752893 0 0 0 0 0 0 0 0 STD5.60
2026-03-29 15:16:07 18 16.20 0.090000 41.649648 41.62752893 0 0 0 0 0 0 0 0 STD5.60
2026-03-29 15:11:04 16 17.50 0.080000 41.649648 41.62752893 0 0 0 0 0 0 0 0 STD5.60
2026-03-29 15:06:02 15 18.00 0.075000 41.649648 41.62752893 0 0 0 0 0 0 0 0 STD5.60
2026-03-29 15:01:00 10 17.20 0.050000 41.649648 41.62752893 0 0 0 0 0 0 0 0 STD5.60
2026-03-29 14:55:59 18 15.50 0.090000 41.649648 41.62752893 0 0 0 0 0 0 0 0 STD5.60
2026-03-29 14:50:57 12 15.60 0.060000 41.649648 41.62752893 0 0 0 0 0 0 0 0 STD5.60
2026-03-29 14:45:55 23 19.40 0.115000 41.649648 41.62752893 0 0 0 0 0 0 0 0 STD5.60
2026-03-29 14:35:52 14 18.50 0.070000 41.649648 41.62752893 0 0 0 0 0 0 0 0 STD5.60
2026-03-29 14:30:49 23 17.40 0.115000 41.649648 41.62752893 0 0 0 0 0 0 0 0 STD5.60
2026-03-29 14:25:47 21 18.30 0.105000 41.649648 41.62752893 0 0 0 0 0 0 0 0 STD5.60
2026-03-29 14:20:42 16 18.90 0.080000 41.649648 41.62752893 0 0 0 0 0 0 0 0 STD5.60
2026-03-29 14:15:40 17 18.40 0.085000 41.649648 41.62752893 0 0 0 0 0 0 0 0 STD5.60
2026-03-29 14:10:38 25 15.80 0.125000 41.649648 41.62752893 0 0 0 0 0 0 0 0 STD5.60
2026-03-29 14:05:36 17 15.80 0.085000 41.649648 41.62752893 0 0 0 0 0 0 0 0 STD5.60
2026-03-29 14:00:34 6 17.90 0.030000 41.649648 41.62752893 0 0 0 0 0 0 0 0 STD5.60
2026-03-29 13:55:32 18 18.30 0.090000 41.649648 41.62752893 0 0 0 0 0 0 0 0 STD5.60
2026-03-29 13:50:30 18 17.40 0.090000 41.649648 41.62752893 0 0 0 0 0 0 0 0 STD5.60
2026-03-29 13:45:28 14 17.20 0.070000 41.649648 41.62752893 0 0 0 0 0 0 0 0 STD5.60
2026-03-29 13:40:26 17 18.40 0.085000 41.649648 41.62752893 0 0 0 0 0 0 0 0 STD5.60
2026-03-29 13:35:25 24 18.10 0.120000 41.649648 41.62752893 0 0 0 0 0 0 0 0 STD5.60
2026-03-29 13:30:22 18 17.40 0.090000 41.649648 41.62752893 0 0 0 0 0 0 0 0 STD5.60
2026-03-29 13:25:20 13 17.00 0.065000 41.649648 41.62752893 0 0 0 0 0 0 0 0 STD5.60
2026-03-29 13:20:16 21 17.10 0.105000 41.649648 41.62752893 0 0 0 0 0 0 0 0 STD5.60
2026-03-29 13:15:14 17 17.80 0.085000 41.649648 41.62752893 0 0 0 0 0 0 0 0 STD5.60
2026-03-29 13:10:12 17 18.40 0.085000 41.649648 41.62752893 0 0 0 0 0 0 0 0 STD5.60
2026-03-29 13:05:11 20 18.60 0.100000 41.649648 41.62752893 0 0 0 0 0 0 0 0 STD5.60
2026-03-29 13:00:10 19 18.60 0.095000 41.649648 41.62752893 0 0 0 0 0 0 0 0 STD5.60
2026-03-29 12:55:07 22 17.60 0.110000 41.649648 41.62752893 0 0 0 0 0 0 0 0 STD5.60
2026-03-29 12:50:05 16 16.10 0.080000 41.649648 41.62752893 0 0 0 0 0 0 0 0 STD5.60
2026-03-29 12:45:04 15 16.70 0.075000 41.649648 41.62752893 0 0 0 0 0 0 0 0 STD5.60
2026-03-29 12:40:01 19 16.30 0.095000 41.649648 41.62752893 0 0 0 0 0 0 0 0 STD5.60
2026-03-29 12:34:59 11 16.50 0.055000 41.649648 41.62752893 0 0 0 0 0 0 0 0 STD5.60
2026-03-29 12:29:57 22 17.60 0.110000 41.649648 41.62752893 0 0 0 0 0 0 0 0 STD5.60
2026-03-29 12:24:55 14 17.70 0.070000 41.649648 41.62752893 0 0 0 0 0 0 0 0 STD5.60
2026-03-29 12:19:51 22 18.40 0.110000 41.649648 41.62752893 0 0 0 0 0 0 0 0 STD5.60
2026-03-29 12:14:49 21 18.90 0.105000 41.649648 41.62752893 0 0 0 0 0 0 0 0 STD5.60
2026-03-29 12:09:48 21 19.40 0.105000 41.649648 41.62752893 0 0 0 0 0 0 0 0 STD5.60
2026-03-29 12:04:45 20 18.90 0.100000 41.649648 41.62752893 0 0 0 0 0 0 0 0 STD5.60
2026-03-29 11:59:43 17 16.50 0.085000 41.649648 41.62752893 0 0 0 0 0 0 0 0 STD5.60
2026-03-29 11:54:42 20 16.10 0.100000 41.649648 41.62752893 0 0 0 0 0 0 0 0 STD5.60
2026-03-29 11:49:39 17 17.80 0.085000 41.649648 41.62752893 0 0 0 0 0 0 0 0 STD5.60
2026-03-29 11:44:38 14 18.00 0.070000 41.649648 41.62752893 0 0 0 0 0 0 0 0 STD5.60
2026-03-29 11:39:36 16 17.60 0.080000 41.649648 41.62752893 0 0 0 0 0 0 0 0 STD5.60
2026-03-29 11:34:34 26 18.00 0.130000 41.649648 41.62752893 0 0 0 0 0 0 0 0 STD5.60
2026-03-29 11:29:32 22 17.60 0.110000 41.649648 41.62752893 0 0 0 0 0 0 0 0 STD5.60
2026-03-29 11:24:30 18 20.10 0.090000 41.649648 41.62752893 0 0 0 0 0 0 0 0 STD5.60
2026-03-29 11:19:26 25 21.30 0.125000 41.649648 41.62752893 0 0 0 0 0 0 0 0 STD5.60
2026-03-29 11:14:24 13 20.10 0.065000 41.649648 41.62752893 0 0 0 0 0 0 0 0 STD5.60
2026-03-29 11:09:22 20 20.20 0.100000 41.649648 41.62752893 0 0 0 0 0 0 0 0 STD5.60
2026-03-29 11:04:20 20 18.90 0.100000 41.649648 41.62752893 0 0 0 0 0 0 0 0 STD5.60
2026-03-29 10:59:18 19 19.20 0.095000 41.649648 41.62752893 0 0 0 0 0 0 0 0 STD5.60
2026-03-29 10:54:16 24 17.50 0.120000 41.649648 41.62752893 0 0 0 0 0 0 0 0 STD5.60
2026-03-29 10:49:14 12 16.40 0.060000 41.649648 41.62752893 0 0 0 0 0 0 0 0 STD5.60
2026-03-29 10:44:22 22 16.50 0.110000 41.649648 41.62752893 0 0 0 0 0 0 0 0 STD5.60
2026-03-29 10:39:11 17 16.50 0.085000 41.649648 41.62752893 0 0 0 0 0 0 0 0 STD5.60
2026-03-29 10:29:07 17 7.10 0.085000 41.649648 41.62752893 0 0 0 0 0 0 0 0 STD5.60
2026-03-29 10:24:03 17 16.40 0.085000 41.649648 41.62752893 0 0 0 0 0 0 0 0 STD5.60
2026-03-29 10:19:00 15 18.00 0.075000 41.649648 41.62752893 0 0 0 0 0 0 0 0 STD5.60
2026-03-29 10:13:59 23 18.80 0.115000 41.649648 41.62752893 0 0 0 0 0 0 0 0 STD5.60
2026-03-29 10:08:56 18 16.30 0.090000 41.649648 41.62752893 0 0 0 0 0 0 0 0 STD5.60
2026-03-29 10:03:54 9 15.70 0.045000 41.649648 41.62752893 0 0 0 0 0 0 0 0 STD5.60
2026-03-29 09:58:53 14 14.70 0.070000 41.649648 41.62752893 0 0 0 0 0 0 0 0 STD5.60
2026-03-29 09:53:51 21 16.90 0.105000 41.649648 41.62752893 0 0 0 0 0 0 0 0 STD5.60
2026-03-29 09:48:49 10 17.70 0.050000 41.649648 41.62752893 0 0 0 0 0 0 0 0 STD5.60
2026-03-29 09:43:47 13 16.30 0.065000 41.649648 41.62752893 0 0 0 0 0 0 0 0 STD5.60
2026-03-29 09:38:45 24 16.50 0.120000 41.649648 41.62752893 0 0 0 0 0 0 0 0 STD5.60
2026-03-29 09:33:44 15 18.50 0.075000 41.649648 41.62752893 0 0 0 0 0 0 0 0 STD5.60
2026-03-29 09:28:42 22 20.40 0.110000 41.649648 41.62752893 0 0 0 0 0 0 0 0 STD5.60
2026-03-29 09:23:38 28 18.90 0.140000 41.649648 41.62752893 0 0 0 0 0 0 0 0 STD5.60
2026-03-29 09:18:36 21 18.10 0.105000 41.649648 41.62752893 0 0 0 0 0 0 0 0 STD5.60
2026-03-29 09:13:34 24 18.30 0.120000 41.649648 41.62752893 0 0 0 0 0 0 0 0 STD5.60
2026-03-29 09:08:32 13 19.60 0.065000 41.649648 41.62752893 0 0 0 0 0 0 0 0 STD5.60
2026-03-29 09:03:30 18 17.50 0.090000 41.649648 41.62752893 0 0 0 0 0 0 0 0 STD5.60
2026-03-29 08:58:28 15 16.20 0.075000 41.649648 41.62752893 0 0 0 0 0 0 0 0 STD5.60
2026-03-29 08:53:26 20 17.00 0.100000 41.649648 41.62752893 0 0 0 0 0 0 0 0 STD5.60
2026-03-29 08:48:24 17 16.70 0.085000 41.649648 41.62752893 0 0 0 0 0 0 0 0 STD5.60
2026-03-29 08:43:22 22 17.60 0.110000 41.649648 41.62752893 0 0 0 0 0 0 0 0 STD5.60
2026-03-29 08:38:20 15 18.80 0.075000 41.649648 41.62752893 0 0 0 0 0 0 0 0 STD5.60
2026-03-29 08:33:18 17 18.60 0.085000 41.649648 41.62752893 0 0 0 0 0 0 0 0 STD5.60
2026-03-29 08:28:16 16 20.40 0.080000 41.649648 41.62752893 0 0 0 0 0 0 0 0 STD5.60
2026-03-29 08:23:12 27 19.80 0.135000 41.649648 41.62752893 0 0 0 0 0 0 0 0 STD5.60
2026-03-29 08:18:10 14 17.70 0.070000 41.649648 41.62752893 0 0 0 0 0 0 0 0 STD5.60
2026-03-29 08:13:08 23 17.80 0.115000 41.649648 41.62752893 0 0 0 0 0 0 0 0 STD5.60
2026-03-29 08:08:06 17 17.40 0.085000 41.649648 41.62752893 0 0 0 0 0 0 0 0 STD5.60
2026-03-29 08:03:05 14 18.10 0.070000 41.649648 41.62752893 0 0 0 0 0 0 0 0 STD5.60
2026-03-29 07:58:03 13 16.80 0.065000 41.649648 41.62752893 0 0 0 0 0 0 0 0 STD5.60
2026-03-29 07:53:01 15 16.70 0.075000 41.649648 41.62752893 0 0 0 0 0 0 0 0 STD5.60
2026-03-29 07:47:58 16 18.00 0.080000 41.649648 41.62752893 0 0 0 0 0 0 0 0 STD5.60
2026-03-29 07:42:57 19 18.90 0.095000 41.649648 41.62752893 0 0 0 0 0 0 0 0 STD5.60
2026-03-29 07:37:54 20 18.40 0.100000 41.649648 41.62752893 0 0 0 0 0 0 0 0 STD5.60
2026-03-29 07:32:53 20 16.30 0.100000 41.649648 41.62752893 0 0 0 0 0 0 0 0 STD5.60
2026-03-29 07:27:51 25 15.70 0.125000 41.649648 41.62752893 0 0 0 0 0 0 0 0 STD5.60
2026-03-29 07:22:47 18 17.40 0.090000 41.649648 41.62752893 0 0 0 0 0 0 0 0 STD5.60
2026-03-29 07:17:45 14 19.20 0.070000 41.649648 41.62752893 0 0 0 0 0 0 0 0 STD5.60
2026-03-29 07:12:43 25 17.60 0.125000 41.649648 41.62752893 0 0 0 0 0 0 0 0 STD5.60
2026-03-29 07:07:41 14 15.80 0.070000 41.649648 41.62752893 0 0 0 0 0 0 0 0 STD5.60
2026-03-29 07:02:40 17 16.80 0.085000 41.649648 41.62752893 0 0 0 0 0 0 0 0 STD5.60
2026-03-29 06:57:37 19 18.90 0.095000 41.649648 41.62752893 0 0 0 0 0 0 0 0 STD5.60
2026-03-29 06:52:35 20 17.60 0.100000 41.649648 41.62752893 0 0 0 0 0 0 0 0 STD5.60
2026-03-29 06:47:33 18 17.90 0.090000 41.649648 41.62752893 0 0 0 0 0 0 0 0 STD5.60
2026-03-29 06:42:32 18 18.90 0.090000 41.649648 41.62752893 0 0 0 0 0 0 0 0 STD5.60
2026-03-29 06:37:29 18 19.30 0.090000 41.649648 41.62752893 0 0 0 0 0 0 0 0 STD5.60
2026-03-29 06:32:27 20 19.00 0.100000 41.649648 41.62752893 0 0 0 0 0 0 0 0 STD5.60
2026-03-29 06:27:24 16 17.90 0.080000 41.649648 41.62752893 0 0 0 0 0 0 0 0 STD5.60
2026-03-29 06:22:19 18 17.30 0.090000 41.649648 41.62752893 0 0 0 0 0 0 0 0 STD5.60
2026-03-29 06:17:17 12 15.00 0.060000 41.649648 41.62752893 0 0 0 0 0 0 0 0 STD5.60
2026-03-29 06:12:16 22 17.30 0.110000 41.649648 41.62752893 0 0 0 0 0 0 0 0 STD5.60
2026-03-29 06:07:14 19 17.90 0.095000 41.649648 41.62752893 0 0 0 0 0 0 0 0 STD5.60
2026-03-29 06:02:11 21 16.80 0.105000 41.649648 41.62752893 0 0 0 0 0 0 0 0 STD5.60
2026-03-29 05:57:10 11 17.30 0.055000 41.649648 41.62752893 0 0 0 0 0 0 0 0 STD5.60
2026-03-29 05:52:07 19 17.30 0.095000 41.649648 41.62752893 0 0 0 0 0 0 0 0 STD5.60
2026-03-29 05:47:06 12 17.60 0.060000 41.649648 41.62752893 0 0 0 0 0 0 0 0 STD5.60
2026-03-29 05:42:04 18 18.20 0.090000 41.649648 41.62752893 0 0 0 0 0 0 0 0 STD5.60
2026-03-29 05:37:02 13 18.40 0.065000 41.649648 41.62752893 0 0 0 0 0 0 0 0 STD5.60
2026-03-29 05:31:59 12 18.30 0.060000 41.649648 41.62752893 0 0 0 0 0 0 0 0 STD5.60
2026-03-29 05:26:58 17 17.70 0.085000 41.649648 41.62752893 0 0 0 0 0 0 0 0 STD5.60
2026-03-29 05:21:53 16 17.60 0.080000 41.649648 41.62752893 0 0 0 0 0 0 0 0 STD5.60
2026-03-29 05:16:51 26 19.30 0.130000 41.649648 41.62752893 0 0 0 0 0 0 0 0 STD5.60
2026-03-29 05:11:48 20 18.20 0.100000 41.649648 41.62752893 0 0 0 0 0 0 0 0 STD5.60
2026-03-29 05:06:46 12 17.10 0.060000 41.649648 41.62752893 0 0 0 0 0 0 0 0 STD5.60
2026-03-29 05:01:44 18 18.80 0.090000 41.649648 41.62752893 0 0 0 0 0 0 0 0 STD5.60
2026-03-29 04:56:42 20 19.70 0.100000 41.649648 41.62752893 0 0 0 0 0 0 0 0 STD5.60
2026-03-29 04:51:40 22 19.70 0.110000 41.649648 41.62752893 0 0 0 0 0 0 0 0 STD5.60
2026-03-29 04:46:38 16 19.60 0.080000 41.649648 41.62752893 0 0 0 0 0 0 0 0 STD5.60
2026-03-29 04:41:37 15 19.30 0.075000 41.649648 41.62752893 0 0 0 0 0 0 0 0 STD5.60
2026-03-29 04:36:35 18 20.10 0.090000 41.649648 41.62752893 0 0 0 0 0 0 0 0 STD5.60
2026-03-29 04:31:33 22 19.10 0.110000 41.649648 41.62752893 0 0 0 0 0 0 0 0 STD5.60
2026-03-29 04:26:31 17 18.00 0.085000 41.649648 41.62752893 0 0 0 0 0 0 0 0 STD5.60
2026-03-29 04:21:25 24 18.70 0.120000 41.649648 41.62752893 0 0 0 0 0 0 0 0 STD5.60
2026-03-29 04:16:24 20 18.20 0.100000 41.649648 41.62752893 0 0 0 0 0 0 0 0 STD5.60
2026-03-29 04:11:22 18 18.20 0.090000 41.649648 41.62752893 0 0 0 0 0 0 0 0 STD5.60
2026-03-29 04:06:19 21 16.30 0.105000 41.649648 41.62752893 0 0 0 0 0 0 0 0 STD5.60
2026-03-29 04:01:17 8 16.60 0.040000 41.649648 41.62752893 0 0 0 0 0 0 0 0 STD5.60
2026-03-29 03:56:15 18 18.10 0.090000 41.649648 41.62752893 0 0 0 0 0 0 0 0 STD5.60
2026-03-29 02:45:46 28 20.00 0.140000 41.649648 41.62752893 0 0 0 0 0 0 0 0 STD5.60
2026-03-29 02:40:45 22 18.70 0.110000 41.649648 41.62752893 0 0 0 0 0 0 0 0 STD5.60
2026-03-29 02:35:42 17 18.00 0.085000 41.649648 41.62752893 0 0 0 0 0 0 0 0 STD5.60
2026-03-29 02:30:41 17 17.30 0.085000 41.649648 41.62752893 0 0 0 0 0 0 0 0 STD5.60
2026-03-29 02:25:41 14 16.40 0.070000 41.649648 41.62752893 0 0 0 0 0 0 0 0 STD5.60
2026-03-29 02:15:33 11 17.20 0.055000 41.649648 41.62752893 0 0 0 0 0 0 0 0 STD5.60
2026-03-29 02:10:31 15 17.00 0.075000 41.649648 41.62752893 0 0 0 0 0 0 0 0 STD5.60
2026-03-29 02:05:29 19 20.00 0.095000 41.649648 41.62752893 0 0 0 0 0 0 0 0 STD5.60
2026-03-29 02:00:27 25 21.60 0.125000 41.649648 41.62752893 0 0 0 0 0 0 0 0 STD5.60
2026-03-29 01:55:25 21 20.00 0.105000 41.649648 41.62752893 0 0 0 0 0 0 0 0 STD5.60
2026-03-29 01:50:23 28 18.90 0.140000 41.649648 41.62752893 0 0 0 0 0 0 0 0 STD5.60
2026-03-29 01:45:21 17 17.60 0.085000 41.649648 41.62752893 0 0 0 0 0 0 0 0 STD5.60
2026-03-29 01:40:19 9 17.00 0.045000 41.649648 41.62752893 0 0 0 0 0 0 0 0 STD5.60
2026-03-29 01:35:17 18 16.40 0.090000 41.649648 41.62752893 0 0 0 0 0 0 0 0 STD5.60
2026-03-29 01:30:15 12 17.60 0.060000 41.649648 41.62752893 0 0 0 0 0 0 0 0 STD5.60
2026-03-29 01:25:15 22 18.00 0.110000 41.649648 41.62752893 0 0 0 0 0 0 0 0 STD5.60
2026-03-29 01:20:09 22 16.50 0.110000 41.649648 41.62752893 0 0 0 0 0 0 0 0 STD5.60
2026-03-29 01:15:08 11 17.10 0.055000 41.649648 41.62752893 0 0 0 0 0 0 0 0 STD5.60
2026-03-29 01:10:06 18 16.50 0.090000 41.649648 41.62752893 0 0 0 0 0 0 0 0 STD5.60
2026-03-29 01:05:03 15 17.20 0.075000 41.649648 41.62752893 0 0 0 0 0 0 0 0 STD5.60
2026-03-29 01:00:04 19 18.70 0.095000 41.649648 41.62752893 0 0 0 0 0 0 0 0 STD5.60
2026-03-29 00:54:59 20 19.60 0.100000 41.649648 41.62752893 0 0 0 0 0 0 0 0 STD5.60
2026-03-29 00:49:57 16 19.90 0.080000 41.649648 41.62752893 0 0 0 0 0 0 0 0 STD5.60
2026-03-29 00:44:55 18 16.20 0.090000 41.649648 41.62752893 0 0 0 0 0 0 0 0 STD5.60
2026-03-29 00:39:53 15 16.90 0.075000 41.649648 41.62752893 0 0 0 0 0 0 0 0 STD5.60
2026-03-29 00:34:51 16 20.30 0.080000 41.649648 41.62752893 0 0 0 0 0 0 0 0 STD5.60
2026-03-29 00:29:50 25 21.00 0.125000 41.649648 41.62752893 0 0 0 0 0 0 0 0 STD5.60
2026-03-29 00:24:47 18 18.30 0.090000 41.649648 41.62752893 0 0 0 0 0 0 0 0 STD5.60
2026-03-29 00:19:32 15 19.50 0.075000 41.649648 41.62752893 0 0 0 0 0 0 0 0 STD5.60
2026-03-29 00:14:29 31 21.30 0.155000 41.649648 41.62752893 0 0 0 0 0 0 0 0 STD5.60
2026-03-29 00:09:28 19 18.80 0.095000 41.649648 41.62752893 0 0 0 0 0 0 0 0 STD5.60
Geiger Counter World Map       A real time radiation map.     Copyright 2015 All rights reserved.